Home   Weather   Fürth   Past weeks

Flag for Germany Past Weather in Fürth, Bavaria, Germany — Yesterday and Last 2 Weeks

Now
41 °F

Passing clouds.


Feels Like: 41 °F
Forecast: 39 / 49 °F
Wind: No wind

Location: Nuernberg

Current Time: Apr 27, 2017 at 10:49:17 pm

Latest Report: Apr 27, 2017 at 10:20 pm


Visibility: N/A

Pressure: 29.95 "Hg

Humidity: 87%

Dew Point: 37 °F

Location of FürthLocation

Past Weather in Fürth — Graph

°F

Fürth Temperature Yesterday

Maximum temperature yesterday: 46 °F (at 6:20 pm)
Minimum temperature yesterday: 36 °F (at 8:50 am)
Average temperature yesterday: 40 °F

High & Low Weather Summary for the Past Weeks

 TemperatureHumidityPressure
High59 °F (Apr 12, 8:20 pm)100% (Apr 17, 11:50 am)30.54 "Hg (Apr 17, 11:50 am)
Low27 °F (Apr 20, 5:20 am)31% (Apr 24, 4:20 pm)29.71 "Hg (Apr 25, 2:50 am)
Average44 °F70%30.09 "Hg
* Reported Apr 12 8:20 pm — Apr 27 8:50 pm, Fürth, Weather by CustomWeather, © 2017

Note: Actual official high and low records may vary slightly from our data, if they occured in-between our weather recording intervals... More about our weather records

Advertising

Fürth Weather History for the Previous 24 Hours

Scroll right to see more
 ConditionsComfort  
Time TempWeatherWind HumidityBarometerVisibility
8:50 pm
Thu, Apr 27
43 °FPassing clouds.No wind87%29.95 "HgN/A
8:20 pm43 °FSunny.No wind87%29.95 "Hg10 mi
7:50 pm45 °FSunny.No wind81%29.92 "Hg10 mi
7:20 pm45 °FSunny.1 mph76%29.92 "Hg10 mi
6:50 pm45 °FSunny.2 mph76%29.92 "Hg10 mi
6:20 pm46 °FSunny.2 mph71%29.95 "Hg10 mi
5:50 pm45 °FSunny.5 mph76%29.95 "Hg10 mi
5:20 pm46 °FPartly sunny.6 mph71%29.95 "HgN/A
4:50 pm45 °FPartly sunny.3 mph71%29.95 "HgN/A
4:25 pm45 °FDrizzle. Partly sunny.2 mph71%29.95 "HgN/A
4:20 pm45 °FDrizzle. Partly sunny.2 mph71%29.95 "HgN/A
3:50 pm46 °FDrizzle. Partly sunny.2 mph66%29.95 "HgN/A
2:50 pm45 °FQuite cool.3 mph76%29.95 "HgN/A
2:20 pm45 °FDrizzle. Broken clouds.3 mph81%29.95 "HgN/A
1:50 pm45 °FDrizzle. Broken clouds.2 mph76%29.95 "HgN/A
1:29 pm43 °FDrizzle. Broken clouds.2 mph81%29.95 "HgN/A
12:50 pm43 °FDrizzle. Broken clouds.5 mph81%29.95 "HgN/A
12:20 pm43 °FBroken clouds.3 mph87%29.95 "HgN/A
11:50 am43 °FDrizzle. Broken clouds.No wind81%29.98 "HgN/A
11:20 am43 °FLight rain. Broken clouds.2 mph81%29.95 "HgN/A
10:50 am41 °FLight rain. Broken clouds.3 mph87%29.95 "HgN/A
10:20 am41 °FLight rain. Broken clouds.2 mph93%29.95 "Hg6 mi
9:54 am41 °FLight rain. Broken clouds.No wind93%29.95 "Hg6 mi
9:20 am39 °FLight rain. Broken clouds.2 mph100%29.95 "Hg4 mi
8:50 am41 °FLight rain. Partly sunny.2 mph93%29.95 "Hg5 mi
8:34 am41 °FLight rain. Partly sunny.No wind93%29.92 "Hg5 mi
8:20 am39 °FLight rain. Partly sunny.No wind100%29.92 "Hg5 mi
7:50 am39 °FLight rain. Low clouds.No wind93%29.92 "Hg6 mi
6:50 am37 °FLight rain. More clouds than sun.No wind100%29.92 "HgN/A
5:50 am37 °FPartly cloudy.No wind100%29.89 "HgN/A
4:50 am37 °FLight rain. Passing clouds.2 mph93%29.89 "HgN/A
3:50 am37 °FPassing clouds.No wind93%29.89 "HgN/A
3:20 am37 °FPassing clouds.1 mph93%29.86 "HgN/A
2:50 am37 °FClear.2 mph93%29.89 "Hg10 mi
2:20 am39 °FPassing clouds.3 mph87%29.89 "HgN/A
1:50 am39 °FClear.2 mph93%29.89 "Hg10 mi
12:50 am39 °FClear.3 mph87%29.89 "Hg10 mi
11:50 pm
Wed, Apr 26
41 °FClear.No wind87%29.92 "Hg10 mi
11:20 pm39 °FClear.2 mph93%29.92 "Hg10 mi
10:50 pm41 °FClear.No wind87%29.92 "Hg10 mi
10:20 pm41 °FClear.2 mph87%29.89 "Hg10 mi
Weather by CustomWeather, © 2017

See weather overviewHow to use our weather pages